Simultaneous Nadir Overpasses (SNOs) Predictions

Prediction of SNOs between NOAA-20 and NOAA-19 Satellite Orbit:

Table of predicted SNOs for the next 14.0 days since TLE Epoch: 2/25/2023
Index Date (NOAA-20) Time (NOAA-20) Lat,Lon (NOAA-20) SZA (NOAA-20 ) Date (NOAA-19) Time (NOAA-19) Lat,Lon (NOAA-19) SZA (NOAA-19 ) Distance(km) Time Diff (sec)
1 03/07/2023 06:53:29 75.65, 61.23 81.64 03/07/2023 06:52:15 75.64, 61.29 81.65 1.74 74
2 03/07/2023 07:44:13 -75.62,-131.38 98.41 03/07/2023 07:43:11 -75.62,-131.50 98.38 3.39 62
3 03/07/2023 08:34:58 75.65, 35.85 81.61 03/07/2023 08:34:13 75.65, 35.85 81.63 0.82 45
4 03/07/2023 09:25:43 -75.67,-156.91 98.38 03/07/2023 09:25:08 -75.68,-156.79 98.37 3.60 35
5 03/07/2023 10:16:28 75.65, 10.47 81.58 03/07/2023 10:16:12 75.67, 10.41 81.62 3.02 16
6 03/07/2023 11:07:13 -75.67, 177.71 98.41 03/07/2023 11:07:08 -75.65, 177.62 98.42 3.20 5
7 03/07/2023 11:57:59 75.70, -15.06 81.61 03/07/2023 11:58:11 75.69, -15.03 81.60 1.31 12
8 03/07/2023 12:48:43 -75.67, 152.33 98.43 03/07/2023 12:49:07 -75.67, 152.18 98.43 4.16 24
9 03/07/2023 13:39:29 75.70, -40.44 81.59 03/07/2023 13:40:10 75.70, -40.47 81.58 1.06 41
10 03/07/2023 14:30:14 -75.72, 126.80 98.40 03/07/2023 14:31:05 -75.73, 126.90 98.42 2.89 51
11 03/07/2023 15:20:59 75.70, -65.82 81.56 03/07/2023 15:22:09 75.72, -65.91 81.57 3.35 70
12 03/07/2023 16:11:49 -75.95, 100.66 98.15 03/07/2023 16:13:00 -75.93, 102.09 98.31 38.73 71



Historial Predications of SNOs between NOAA-20 and NOAA-19
